STARLINK-1566 (46079 NORAD) Tracking and Keplerian Element Data

This shows tracking and keplerian element data for the satellite.

Feedback or suggestion? Click here.




ElementValue
Catalog46079
NameSTARLINK-1566
Epoch Orbit1914
Epoch Day339.02955627
Epoch Year2020
RAAN83.2248
Inclination53.0127
Eccentricity0.0001224
Argument of Perigee82.7976
Mean Anonmoly277.3152
Mean Motion15.05593947
Decay Rate2.723E-05
L11 46079U 20055BE 20339.02955627 .00002723 00000-0 20591-3 0 9995
L22 46079 53.0127 83.2248 0001224 82.7976 277.3152 15.05593947 19141

Live tracking and technical data element details for STARLINK-1566 (NORAD 46079). STARLINK-1566 can be tracked NOW for your location showing map with azimuth and elevation plus other details from your city location.

Track the satellite on the map from your city or location and see movement details for azimuth, elevation, latitude, longitude, range, height, and movement on the map or in text.







IsCatalogInMostPopularTable: catalog: 46079, numindb: 29
Update: records affected: 1



GetName: 46079 STARLINK-1566

Hit Count: updated at: Sun, 06 Dec 2020 01:31:14 GMT